TimeEST,TemperatureF,Dew PointF,Humidity,Sea Level PressureIn,VisibilityMPH,Wind Direction,Wind SpeedMPH,Gust SpeedMPH,PrecipitationIn,Events,Conditions,WindDirDegrees,DateUTC
12:53 AM,45.0,32.0,60,30.01,10.0,NNW,9.2,-,N/A,,Overcast,340,2014-02-24 05:53:00
1:53 AM,43.0,33.1,68,30.03,10.0,North,9.2,-,0.00,Rain,Light Rain,10,2014-02-24 06:53:00
2:10 AM,42.1,34.0,73,30.05,10.0,NNE,5.8,-,0.00,,Overcast,30,2014-02-24 07:10:00
2:43 AM,42.1,34.0,73,30.06,10.0,North,6.9,-,0.00,,Overcast,360,2014-02-24 07:43:00
2:53 AM,42.1,33.1,70,30.02,10.0,North,6.9,-,0.00,,Overcast,360,2014-02-24 07:53:00
3:53 AM,39.9,30.9,70,30.04,10.0,North,9.2,-,N/A,,Overcast,360,2014-02-24 08:53:00
4:43 AM,37.0,28.9,73,30.09,10.0,Variable,4.6,-,N/A,,Scattered Clouds,0,2014-02-24 09:43:00
4:53 AM,37.0,28.9,73,30.07,10.0,North,5.8,-,N/A,,Mostly Cloudy,10,2014-02-24 09:53:00
5:13 AM,36.0,28.0,73,30.10,10.0,North,4.6,-,N/A,,Scattered Clouds,10,2014-02-24 10:13:00
5:21 AM,36.0,28.0,73,30.11,10.0,NNE,3.5,-,N/A,,Mostly Cloudy,30,2014-02-24 10:21:00
5:53 AM,36.0,27.0,70,30.09,10.0,NNE,9.2,-,N/A,,Overcast,20,2014-02-24 10:53:00
6:29 AM,32.0,25.0,75,30.11,10.0,NNE,3.5,-,N/A,,Scattered Clouds,30,2014-02-24 11:29:00
6:53 AM,32.0,24.1,73,30.11,10.0,North,5.8,-,N/A,,Partly Cloudy,360,2014-02-24 11:53:00
7:53 AM,34.0,24.1,67,30.14,10.0,North,3.5,-,N/A,,Partly Cloudy,10,2014-02-24 12:53:00
8:53 AM,37.0,23.0,57,30.16,10.0,NNW,5.8,-,N/A,,Partly Cloudy,330,2014-02-24 13:53:00
9:53 AM,39.9,23.0,51,30.18,10.0,North,8.1,-,N/A,,Partly Cloudy,350,2014-02-24 14:53:00
10:53 AM,41.0,19.0,41,30.16,10.0,Calm,Calm,-,N/A,,Partly Cloudy,0,2014-02-24 15:53:00
11:53 AM,44.1,17.1,34,30.17,10.0,Variable,3.5,-,N/A,,Partly Cloudy,0,2014-02-24 16:53:00
12:53 PM,46.9,12.0,24,30.14,10.0,NW,9.2,18.4,N/A,,Clear,320,2014-02-24 17:53:00
1:53 PM,48.9,9.0,20,30.13,10.0,West,10.4,17.3,N/A,,Clear,280,2014-02-24 18:53:00
2:53 PM,51.1,10.0,19,30.11,10.0,West,15.0,20.7,N/A,,Clear,270,2014-02-24 19:53:00
3:53 PM,50.0,8.1,18,30.12,10.0,WSW,8.1,-,N/A,,Clear,250,2014-02-24 20:53:00
4:53 PM,48.9,8.1,19,30.13,10.0,West,13.8,-,N/A,,Clear,270,2014-02-24 21:53:00
5:53 PM,46.0,8.1,21,30.14,10.0,WNW,9.2,-,N/A,,Clear,290,2014-02-24 22:53:00
6:53 PM,43.0,8.1,24,30.14,10.0,WNW,5.8,-,N/A,,Clear,300,2014-02-24 23:53:00
7:53 PM,39.9,10.0,29,30.15,10.0,WNW,5.8,-,N/A,,Clear,290,2014-02-25 00:53:00
8:53 PM,39.9,9.0,28,30.14,10.0,WNW,3.5,-,N/A,,Clear,300,2014-02-25 01:53:00
9:53 PM,35.1,14.0,42,30.14,10.0,Calm,Calm,-,N/A,,Clear,0,2014-02-25 02:53:00
10:53 PM,32.0,16.0,52,30.12,10.0,Calm,Calm,-,N/A,,Clear,0,2014-02-25 03:53:00
11:53 PM,30.0,16.0,56,30.09,10.0,North,3.5,-,N/A,,Clear,10,2014-02-25 04:53:00